FW5486 Weather Reports


Display with metric or nautical units.
time (UTC)temp
F
wind
direction
speed
MPH
gust
MPH
rain 1hr
in
rain 24hr
in
rain mn
in
humidity
%
barometer
mb
20260509111546 70 17 0.0 0.0 0.00 2.82 0.00 95 1011.8
20260509111039 70 17 0.0 0.0 0.00 2.82 0.00 95 1011.6
20260509110536 70 17 0.0 0.0 0.00 2.82 0.00 95 1011.3
20260509110036 70 17 0.0 0.0 0.00 2.82 0.00 95 1011.5
20260509105537 70 17 0.0 0.0 0.00 2.82 0.00 95 1011.5
20260509105035 70 17 0.0 0.0 0.00 2.82 0.00 95 1011.4
20260509104537 70 90 0.0 0.0 0.00 2.82 0.00 94 1011.4
20260509104029 70 105 0.0 0.0 0.00 2.82 0.00 94 1011.1
20260509103528 70 105 0.0 0.0 0.00 2.82 0.00 94 1010.9
20260509103028 70 105 0.0 0.0 0.00 2.82 0.00 94 1010.9
20260509102528 70 105 1.0 4.0 0.00 2.82 0.00 94 1011.0
20260509102028 70 105 2.0 5.0 0.00 2.82 0.00 94 1010.8
20260509101530 70 169 2.0 5.0 0.00 2.82 0.00 94 1010.8
20260509101028 70 153 1.0 4.0 0.00 2.82 0.00 94 1011.0
20260509100524 70 148 1.0 3.0 0.00 2.82 0.00 94 1011.0
20260509100025 70 148 1.0 5.0 0.00 2.82 0.00 94 1010.9
20260509095758 70 148 1.0 5.0 0.00 2.82 0.00 95 1010.9
20260509095023 70 161 1.0 5.0 0.00 2.82 0.00 95 1010.8
20260509094522 70 140 1.0 6.0 0.00 2.82 0.00 95 1010.8
20260509094021 70 157 2.0 6.0 0.00 2.82 0.00 95 1010.8
20260509093518 70 159 2.0 5.0 0.00 2.82 0.00 95 1010.6
20260509093019 70 140 2.0 5.0 0.00 2.82 0.00 95 1010.6
20260509092520 70 150 2.0 5.0 0.00 2.82 0.00 95 1010.5
20260509092018 69 150 2.0 5.0 0.00 2.82 0.00 95 1010.7
20260509091518 69 182 2.0 6.0 0.00 2.82 0.00 95 1010.6
20260509091010 69 175 3.0 8.0 0.00 2.82 0.00 95 1010.5
20260509090510 69 155 3.0 8.0 0.00 2.82 0.00 95 1010.5
20260509090009 69 170 4.0 8.0 0.00 2.82 0.00 95 1010.3
20260509085742 69 155 3.0 8.0 0.00 2.82 0.00 95 1010.3
20260509085249 69 164 2.0 6.0 0.00 2.82 0.00 95 1010.3
20260509085012 69 147 2.0 7.0 0.00 2.82 0.00 95 1010.3
20260509084631 69 134 2.0 6.0 0.00 2.82 0.00 95 1010.5
20260509083506 69 139 2.0 6.0 0.00 2.82 0.00 95 1010.5
20260509083008 69 115 3.0 5.0 0.00 2.82 0.00 95 1010.5
20260509082504 69 110 3.0 6.0 0.00 2.82 0.00 95 1010.5
20260509082005 69 120 3.0 6.0 0.00 2.82 0.00 95 1010.7
20260509081504 69 126 3.0 6.0 0.00 2.82 0.00 95 1010.8
20260509081001 69 117 3.0 6.0 0.00 2.82 0.00 95 1010.9
20260509080502 69 123 3.0 6.0 0.00 2.82 0.00 95 1011.1
20260509080233 69 120 2.0 4.0 0.00 2.82 0.00 95 1011.2
20260509075734 68 128 2.0 4.0 0.00 2.82 0.00 95 1011.2
20260509074959 69 127 2.0 4.0 0.00 2.82 0.00 95 1011.2
20260509074500 68 113 2.0 4.0 0.00 2.82 0.00 95 1011.2
20260509073957 68 106 2.0 4.0 0.00 2.82 0.00 95 1011.3
20260509073456 68 127 2.0 6.0 0.00 2.82 0.00 95 1011.3
20260509072952 68 166 3.0 6.0 0.00 2.82 0.00 95 1011.4
20260509072453 68 145 2.0 6.0 0.00 2.82 0.00 95 1011.3
20260509071953 68 126 2.0 6.0 0.00 2.82 0.00 95 1011.6
20260509071450 68 88 2.0 3.0 0.00 2.82 0.00 95 1011.7
20260509070950 68 88 1.0 3.0 0.00 2.82 0.00 95 1011.8
20260509070448 68 98 1.0 2.0 0.00 2.82 0.00 95 1011.9
20260509065949 68 98 1.0 2.0 0.00 2.82 0.00 95 1012.0
20260509065445 68 98 1.0 2.0 0.00 2.82 0.00 94 1012.0
20260509065336 68 98 2.0 2.0 0.00 2.82 0.00 95 1012.1
20260509065223 68 98 1.0 2.0 0.00 2.82 0.00 94 1012.0
20260509063945 68 98 1.0 2.0 0.00 2.82 0.00 95 1012.0
20260509063446 69 98 1.0 2.0 0.00 2.82 0.00 95 1012.2
20260509062948 69 98 1.0 4.0 0.00 2.82 0.00 95 1012.1
20260509062443 69 98 2.0 4.0 0.00 2.82 0.00 95 1012.0
20260509061941 69 137 2.0 3.0 0.00 2.82 0.00 95 1012.0
20260509061442 69 115 2.0 3.0 0.00 2.82 0.00 95 1012.2
20260509060941 69 76 2.0 3.0 0.00 2.82 0.00 94 1012.2
20260509060712 69 76 1.0 2.0 0.00 2.82 0.00 94 1012.4
20260509055942 69 76 1.0 2.0 0.00 2.82 0.00 94 1012.6
20260509055710 69 76 1.0 2.0 0.00 2.82 0.00 94 1012.8
20260509054938 69 76 1.0 2.0 0.00 2.82 0.00 94 1012.8
20260509054440 69 155 0.0 2.0 0.00 2.82 0.00 94 1012.9
20260509053937 69 155 1.0 5.0 0.00 2.82 0.00 94 1013.0
20260509053438 69 169 2.0 5.0 0.00 2.82 0.00 94 1012.8
20260509052934 69 153 2.0 5.0 0.00 2.82 0.00 94 1012.6
20260509052435 69 132 2.0 6.0 0.00 2.82 0.00 94 1012.4
20260509051931 69 131 3.0 6.0 0.00 2.82 0.00 94 1012.5
20260509051430 69 147 2.0 5.0 0.00 2.82 0.00 94 1012.7
20260509051204 69 132 2.0 5.0 0.00 2.82 0.00 94 1012.6
20260509050444 69 132 2.0 4.0 0.00 2.82 0.00 94 1012.7
20260509045930 69 130 2.0 4.0 0.00 2.82 2.82 94 1012.7
20260509045430 69 119 2.0 4.0 0.00 2.82 2.82 94 1012.8
20260509044931 69 130 1.0 3.0 0.00 2.82 2.82 94 1013.0
20260509044427 69 107 1.0 3.0 0.00 2.82 2.82 94 1013.0
20260509043927 69 112 1.0 3.0 0.00 2.82 2.82 94 1013.0
20260509043656 69 82 0.0 2.0 0.00 2.82 2.82 94 1013.0
20260509042925 69 82 0.0 2.0 0.00 2.82 2.82 94 1013.2
20260509042423 69 82 1.0 2.0 0.00 2.82 2.82 94 1013.2
20260509041921 69 82 1.0 2.0 0.00 2.82 2.82 94 1013.2
20260509041417 69 75 1.0 2.0 0.00 2.82 2.82 94 1013.2
20260509040917 69 75 1.0 3.0 0.00 2.82 2.82 94 1013.2
20260509040417 69 75 1.0 3.0 0.00 2.82 2.82 94 1013.3
20260509040148 69 75 1.0 3.0 0.00 2.82 2.82 94 1013.2
20260509035415 69 68 1.0 3.0 0.00 2.82 2.82 94 1013.4
20260509034914 69 30 1.0 3.0 0.00 2.82 2.82 94 1013.3
20260509034410 69 96 1.0 4.0 0.03 2.82 2.82 94 1013.3
20260509033905 69 96 2.0 4.0 0.11 2.82 2.82 94 1013.2
20260509033636 69 50 1.0 2.0 0.12 2.82 2.82 94 1013.1
20260509032903 69 24 1.0 2.0 0.13 2.82 2.82 94 1013.1
20260509032403 69 32 1.0 3.0 0.13 2.82 2.82 94 1013.1
20260509031901 69 112 2.0 6.0 0.13 2.82 2.82 94 1013.0
20260509031401 69 97 2.0 6.0 0.13 2.82 2.82 94 1012.8
20260509030902 69 105 3.0 7.0 0.13 2.82 2.82 94 1012.9
20260509030400 69 114 3.0 7.0 0.13 2.82 2.82 94 1012.9
20260509025857 69 122 2.0 9.0 0.13 2.82 2.82 94 1012.8
20260509025358 69 14 3.0 9.0 0.13 2.82 2.82 94 1013.0
20260509024855 69 94 5.0 10.0 0.13 2.82 2.82 94 1012.8
20260509024628 69 100 4.0 10.0 0.10 2.79 2.81 94 1012.4
20260509023854 69 128 1.0 3.0 0.02 2.71 2.71 94 1013.2
20260509023353 69 308 1.0 3.0 0.01 2.70 2.70 94 1013.4
20260509022852 69 308 0.0 40.0 0.00 2.69 2.69 94 1013.6
20260509022351 69 80 1.0 40.0 0.00 2.69 2.69 94 1012.9
20260509021844 69 80 2.0 7.0 0.00 2.69 2.69 94 1012.6
20260509021342 69 92 4.0 7.0 0.00 2.69 2.69 94 1012.0
20260509020842 69 132 3.0 7.0 0.00 2.69 2.69 94 1011.6
20260509020339 69 125 3.0 8.0 0.00 2.69 2.69 94 1011.7
20260509015838 69 146 3.0 8.0 0.00 2.69 2.69 94 1011.9
20260509015335 69 114 2.0 6.0 0.00 2.69 2.69 94 1011.9
20260509014956 69 126 1.0 4.0 0.00 2.69 2.69 94 1012.0
20260509014845 69 96 2.0 4.0 0.00 2.69 2.69 94 1011.9
20260509014610 69 126 2.0 4.0 0.00 2.69 2.69 94 1012.0
20260509013605 69 124 1.0 2.0 0.00 2.69 2.69 94 1012.0
20260509012833 69 138 2.0 3.0 0.00 2.69 2.69 94 1012.0
20260509012330 69 109 1.0 3.0 0.00 2.69 2.69 94 1012.0
20260509011831 69 98 0.0 2.0 0.00 2.69 2.69 94 1012.1
20260509011330 69 98 0.0 2.0 0.00 2.69 2.69 94 1012.3
20260509010829 69 98 1.0 2.0 0.00 2.69 2.69 94 1012.4
20260509010330 69 98 1.0 4.0 0.00 2.69 2.69 94 1012.2
20260509005830 69 98 2.0 4.0 0.00 2.69 2.69 94 1012.3
20260509005330 69 86 2.0 3.0 0.00 2.69 2.69 94 1012.2
20260509004827 69 86 2.0 4.0 0.00 2.69 2.69 94 1012.3
20260509004557 69 92 2.0 4.0 0.00 2.69 2.69 94 1012.1
20260509004059 69 88 2.0 4.0 0.00 2.69 2.69 94 1012.4
20260509003327 69 93 3.0 9.0 0.00 2.69 2.69 93 1012.4
20260509002825 70 69 3.0 9.0 0.00 2.69 2.69 93 1012.5
20260509002325 70 128 4.0 9.0 0.00 2.69 2.69 93 1012.5
20260509001824 70 84 3.0 9.0 0.00 2.69 2.69 94 1012.2
20260509001319 70 106 1.0 5.0 0.00 2.69 2.69 94 1012.4
20260509000820 70 40 1.0 3.0 0.00 2.69 2.69 94 1012.5
20260509000320 70 40 1.0 3.0 0.00 2.69 2.69 94 1012.5
20260508235819 70 15 1.0 3.0 0.00 2.69 2.69 94 1012.2
20260508235320 70 49 2.0 4.0 0.00 2.69 2.69 94 1012.1
20260508234815 70 81 2.0 4.0 0.00 2.69 2.69 94 1012.0
20260508234317 70 84 3.0 4.0 0.00 2.69 2.69 94 1011.8
20260508233816 70 100 3.0 4.0 0.00 2.69 2.69 94 1011.8
20260508233316 70 128 2.0 4.0 0.00 2.69 2.69 94 1011.9
20260508232817 70 110 2.0 4.0 0.00 2.69 2.69 94 1012.1
20260508232315 70 97 2.0 4.0 0.00 2.69 2.69 94 1012.0
20260508231814 70 97 2.0 6.0 0.00 2.69 2.69 94 1011.9
20260508231544 70 104 4.0 8.0 0.01 2.69 2.69 94 1011.7
20260508231047 70 55 3.0 8.0 0.01 2.69 2.69 94 1011.3
20260508230309 70 121 1.0 5.0 0.01 2.69 2.69 94 1011.8
20260508225809 69 15 1.0 3.0 0.01 2.69 2.69 94 1012.2
20260508225548 69 348 1.0 6.0 0.01 2.69 2.69 94 1012.5
20260508225310 69 15 1.0 4.0 0.01 2.69 2.69 94 1012.4
20260508224310 69 28 2.0 6.0 0.01 2.69 2.69 94 1012.4
20260508223810 69 37 3.0 7.0 0.01 2.69 2.69 94 1012.3
20260508223305 70 76 4.0 7.0 0.03 2.69 2.69 94 1012.0
20260508222807 70 135 5.0 11.0 0.07 2.69 2.69 94 1011.8
20260508222307 70 129 4.0 11.0 0.07 2.69 2.69 95 1012.0
20260508221805 69 113 4.0 10.0 0.07 2.69 2.69 95 1012.2
20260508221305 69 91 5.0 10.0 0.06 2.68 2.68 94 1011.8
20260508220806 69 107 4.0 9.0 0.06 2.68 2.68 94 1011.7
20260508220306 69 102 4.0 9.0 0.06 2.68 2.68 94 1012.2
20260508215803 69 95 4.0 9.0 0.06 2.68 2.68 94 1012.3
20260508215306 69 110 4.0 9.0 0.06 2.68 2.68 94 1012.2
20260508214803 68 143 3.0 8.0 0.06 2.68 2.68 94 1012.7
20260508214304 68 128 4.0 12.0 0.06 2.68 2.68 94 1012.7
20260508213805 68 176 4.0 12.0 0.05 2.67 2.68 94 1012.8
20260508213259 68 136 2.0 6.0 0.04 2.66 2.66 94 1013.2
20260508212801 68 103 2.0 4.0 0.03 2.62 2.62 94 1013.2
20260508212259 68 127 2.0 8.0 0.03 2.62 2.62 93 1013.0
20260508211758 68 121 3.0 9.0 0.03 2.62 2.62 93 1013.1
20260508211258 68 154 3.0 9.0 0.03 2.62 2.62 93 1013.1
20260508210759 68 152 4.0 10.0 0.03 2.62 2.62 93 1013.1
20260508210252 68 124 4.0 10.0 0.03 2.62 2.62 93 1012.9
20260508205752 68 130 4.0 12.0 0.03 2.62 2.62 93 1013.1
20260508205254 68 115 5.0 12.0 0.03 2.62 2.62 93 1013.2
20260508204749 68 127 5.0 12.0 0.03 2.62 2.62 93 1013.4
20260508204248 69 145 5.0 10.0 0.03 2.62 2.62 93 1013.3
20260508203748 69 136 5.0 10.0 0.03 2.62 2.62 93 1013.3
20260508203250 69 126 5.0 13.0 0.03 2.62 2.62 93 1013.2
20260508202744 69 112 4.0 13.0 0.00 2.59 2.60 93 1013.5
20260508202516 69 119 4.0 10.0 0.00 2.59 2.59 93 1013.6
20260508201743 69 108 6.0 11.0 0.00 2.59 2.59 93 1013.5
20260508201245 69 115 6.0 11.0 0.02 2.59 2.59 94 1013.5
20260508200743 69 107 6.0 11.0 0.03 2.59 2.59 94 1013.3
20260508200245 69 102 6.0 17.0 0.04 2.59 2.59 94 1013.2
20260508200013 68 127 7.0 17.0 0.08 2.59 2.59 94 1013.2
20260508195240 68 117 7.0 17.0 0.10 2.59 2.59 94 1013.4
20260508194740 68 165 7.0 17.0 0.12 2.59 2.59 94 1013.2
20260508194241 68 123 6.0 14.0 0.14 2.59 2.59 94 1013.1
20260508193737 67 134 7.0 13.0 0.18 2.59 2.59 94 1013.0
20260508193237 67 108 7.0 13.0 0.19 2.59 2.59 94 1012.8
20260508193004 67 109 7.0 13.0 0.24 2.59 2.59 94 1012.7
20260508192503 67 169 6.0 13.0 0.26 2.59 2.59 94 1012.9
20260508191734 67 142 5.0 10.0 0.34 2.59 2.59 94 1013.1
20260508191234 67 134 5.0 10.0 0.36 2.57 2.58 94 1013.3
20260508190733 67 112 5.0 10.0 0.42 2.56 2.56 94 1013.3
20260508190502 67 125 5.0 10.0 0.44 2.53 2.54 94 1013.4
20260508185727 67 101 3.0 6.0 0.48 2.51 2.51 94 1014.0
20260508185228 67 89 3.0 8.0 0.63 2.49 2.49 94 1014.0
20260508184956 67 68 5.0 9.0 0.99 2.47 2.47 94 1014.0
20260508184226 67 78 6.0 9.0 0.98 2.45 2.45 94 1014.2
20260508183726 67 99 4.0 9.0 0.94 2.41 2.42 94 1014.4
20260508183229 67 114 4.0 9.0 0.97 2.40 2.40 94 1014.3
20260508183221 66 245 5.0 9.0 0.96 2.35 2.36 94 1014.2
20260508182220 67 73 5.0 12.0 1.00 2.33 2.33 94 1014.0
20260508181951 66 90 5.0 12.0 0.93 2.25 2.25 94 1014.1
20260508181219 66 117 3.0 11.0 1.06 2.20 2.21 94 1014.3
20260508180720 66 91 3.0 8.0 1.03 2.14 2.16 94 1014.5
20260508180220 66 64 2.0 6.0 1.02 2.09 2.10 94 1014.7
20260508175713 66 29 2.0 8.0 0.99 2.03 2.03 94 1015.6
20260508174715 66 291 2.0 10.0 0.49 1.48 1.48 94 1016.6
20260508174213 66 33 3.0 10.0 0.52 1.47 1.47 94 1015.0
20260508173946 66 106 5.0 11.0 0.59 1.47 1.47 94 1014.9
20260508173213 66 111 5.0 11.0 0.79 1.43 1.44 94 1014.7
20260508172709 66 74 4.0 8.0 1.04 1.39 1.39 94 1015.0
20260508172439 66 117 4.0 8.0 0.99 1.33 1.33 94 1015.0
20260508171708 66 90 3.0 8.0 0.98 1.32 1.32 94 1015.0
20260508171208 66 30 4.0 11.0 0.82 1.14 1.15 94 1015.6
20260508170707 66 31 4.0 11.0 0.78 1.10 1.11 94 1015.0
20260508170210 66 57 6.0 14.0 0.75 1.07 1.07 94 1014.5
20260508165934 65 75 7.0 14.0 0.72 1.04 1.04 94 1014.5
20260508165437 65 68 5.0 12.0 0.70 1.02 1.03 94 1014.2
20260508164702 65 65 5.0 15.0 0.67 0.99 1.00 94 1014.5
20260508164201 65 42 4.0 15.0 0.63 0.95 0.96 94 1014.4
20260508163933 65 70 3.0 11.0 0.58 0.88 0.88 93 1014.0
20260508163201 65 59 3.0 11.0 0.28 0.47 0.64 93 1013.9
20260508162701 66 64 3.0 10.0 0.25 0.35 0.36 93 1014.6
20260508162156 66 12 3.0 8.0 0.26 0.34 0.34 93 1014.1
20260508161658 66 51 3.0 8.0 0.27 0.34 0.34 93 1014.3
20260508161158 66 355 2.0 6.0 0.25 0.32 0.32 93 1014.2
20260508160656 66 44 2.0 5.0 0.26 0.32 0.32 93 1014.5
20260508160156 66 25 2.0 8.0 0.26 0.32 0.32 93 1014.4
20260508155653 66 355 2.0 8.0 0.28 0.32 0.32 93 1014.5
20260508155151 66 72 2.0 5.0 0.31 0.32 0.32 93 1014.6
20260508154648 66 74 2.0 6.0 0.31 0.32 0.32 93 1014.7
20260508154146 66 64 3.0 7.0 0.32 0.32 0.32 93 1014.6
20260508153646 66 91 3.0 7.0 0.30 0.30 0.31 93 1014.5
20260508153144 66 125 3.0 8.0 0.19 0.19 0.19 93 1014.5
20260508152642 66 53 3.0 8.0 0.09 0.09 0.09 93 1014.5
20260508152143 66 65 3.0 8.0 0.08 0.08 0.08 92 1014.4
20260508151643 66 93 3.0 9.0 0.07 0.07 0.07 92 1014.2
20260508151138 66 73 3.0 9.0 0.07 0.07 0.07 92 1014.3
20260508150639 67 50 3.0 9.0 0.06 0.06 0.06 92 1014.6
20260508150140 67 355 3.0 10.0 0.05 0.05 0.06 92 1015.0
20260508145638 67 26 3.0 10.0 0.04 0.04 0.04 92 1015.0
20260508145141 67 14 3.0 10.0 0.01 0.01 0.01 91 1015.3
20260508144644 68 5 3.0 9.0 0.00 0.00 0.00 90 1015.3
20260508144639 68 51 3.0 10.0 0.01 0.01 0.01 91 1015.2
20260508143635 68 28 3.0 8.0 0.00 0.00 0.00 90 1015.3
20260508143135 68 73 3.0 8.0 0.00 0.00 0.00 89 1015.2
20260508142634 68 71 2.0 6.0 0.00 0.00 0.00 89 1015.2
20260508142135 68 54 2.0 5.0 0.00 0.00 0.00 89 1015.2
20260508141647 69 54 2.0 5.0 0.00 0.00 0.00 89 1015.2
20260508141134 69 93 3.0 7.0 0.00 0.00 0.00 88 1015.2
20260508140633 69 38 3.0 7.0 0.00 0.00 0.00 89 1015.2
20260508140133 69 62 2.0 6.0 0.00 0.00 0.00 88 1015.2
20260508135633 69 55 3.0 7.0 0.00 0.00 0.00 88 1015.0
20260508135133 69 36 2.0 7.0 0.00 0.00 0.00 88 1014.8
20260508134627 68 78 2.0 7.0 0.00 0.00 0.00 89 1014.7
20260508134400 68 117 3.0 7.0 0.00 0.00 0.00 89 1014.7
20260508133625 68 122 4.0 9.0 0.00 0.00 0.00 89 1014.8
20260508133125 68 126 4.0 9.0 0.00 0.00 0.00 89 1014.7
20260508132626 67 95 4.0 9.0 0.00 0.00 0.00 89 1014.4
20260508132125 67 123 5.0 9.0 0.00 0.00 0.00 90 1014.4
20260508131621 67 112 4.0 9.0 0.00 0.00 0.00 90 1014.6
20260508131353 67 84 4.0 10.0 0.00 0.00 0.00 90 1014.6
20260508130619 66 96 4.0 10.0 0.00 0.00 0.00 91 1014.7
20260508130119 66 132 4.0 8.0 0.00 0.00 0.00 91 1014.7
20260508125620 66 167 4.0 10.0 0.00 0.00 0.00 91 1014.6
20260508125120 66 119 4.0 10.0 0.00 0.00 0.00 91 1014.4
20260508125005 65 99 3.0 6.0 0.00 0.00 0.00 91 1014.7
20260508124854 66 86 3.0 9.0 0.00 0.00 0.00 91 1014.4
20260508124113 65 147 2.0 6.0 0.00 0.00 0.00 91 1014.6
20260508123113 65 141 3.0 6.0 0.00 0.00 0.00 91 1014.8
20260508122613 65 42 3.0 7.0 0.00 0.00 0.00 91 1014.7
20260508122112 65 93 3.0 7.0 0.00 0.00 0.00 91 1014.8
20260508121608 65 102 3.0 7.0 0.00 0.00 0.00 91 1014.8
20260508121110 65 111 4.0 10.0 0.00 0.00 0.00 91 1014.6
20260508120607 65 107 5.0 10.0 0.00 0.00 0.00 91 1014.5
20260508120107 65 92 4.0 8.0 0.00 0.00 0.00 92 1014.5
20260508115837 65 96 3.0 8.0 0.00 0.00 0.00 91 1014.7
20260508115106 65 95 3.0 7.0 0.00 0.00 0.00 92 1014.8
20260508114601 65 69 3.0 7.0 0.00 0.00 0.00 92 1015.1
20260508114101 65 112 3.0 6.0 0.00 0.00 0.00 92 1015.2
20260508113832 65 85 3.0 5.0 0.00 0.00 0.00 91 1015.3
20260508113719 65 86 3.0 5.0 0.00 0.00 0.00 91 1015.3
20260508112601 65 66 2.0 4.0 0.00 0.00 0.00 91 1015.5
20260508112333 65 63 2.0 3.0 0.00 0.00 0.00 91 1015.5